Theta_e
284 280 279 282 282 279 281 280 279 279 280 280 279 279 282 282 280 281 281 280 280 281 283 283 283 283 282 281 281 282 282 282 282 281 281 281 281 282 283 283 284 284 284 283
280 277 281 283 282 280 279 278 277 279 279 278 276 277 279 279 281 283 283 282 281 280 281 281 281 281 281 281 281 281 282 282 282 282 282 282 281 281 282 283 283 283 283 283
277 276 279 280 279 279 278 278 277 278 277 276 274 276 277 278 278 279 282 284 283 283 282 281 280 280 280 280 280 281 282 282 282 282 281 281 281 281 282 282 282 282 283 283
276 276 278 278 278 280 277 278 279 277 276 273 274 271 274 275 276 277 279 281 283 283 283 282 281 280 279 280 281 281 281 281 282 282 281 281 281 280 280 281 282 282 282 282
275 274 276 277 278 278 277 277 277 276 273 271 270 270 273 274 275 278 279 280 282 283 283 282 281 282 281 281 280 281 281 281 282 282 281 281 280 280 280 281 281 281 282 282
273 275 275 277 277 277 277 277 277 275 273 266 271 273 273 274 277 279 278 279 280 281 281 283 282 282 280 280 280 280 280 280 281 281 280 281 280 280 280 280 280 280 281 281
273 274 274 277 276 278 276 275 271 266 264 268 269 268 278 277 278 279 280 279 280 281 281 281 280 280 279 279 279 279 279 279 280 280 280 280 280 280 281 280 280 280 280 280
270 269 272 275 275 275 275 275 271 264 264 267 269 267 275 277 278 279 278 279 280 280 281 281 281 281 280 280 279 279 279 279 279 280 280 280 280 280 281 281 280 280 280 280
267 270 272 275 274 274 273 271 274 268 261 264 269 272 277 277 278 277 277 277 279 281 280 281 280 281 280 280 279 279 279 279 279 280 280 279 279 280 280 280 281 281 280 280
274 267 272 272 273 273 272 275 271 269 263 261 268 267 273 277 278 277 276 277 279 278 278 279 279 279 280 280 280 279 279 279 280 280 280 280 279 280 280 280 280 280 280 281
273 271 268 271 269 271 270 269 270 271 268 265 263 270 275 279 279 278 279 279 280 279 279 279 279 279 280 279 279 279 278 279 279 280 280 280 280 280 280 280 280 280 280 280
277 269 263 267 267 269 268 270 271 268 265 266 265 272 278 278 278 278 278 278 277 278 279 278 278 278 278 278 278 278 279 279 280 280 279 280 280 280 279 280 280 280 280 280
276 267 261 266 266 268 264 270 273 270 268 265 265 273 275 276 277 278 278 278 278 278 277 277 277 277 278 278 278 278 278 279 279 279 279 279 279 279 279 279 280 280 279 280
279 264 266 267 268 266 261 264 271 266 261 270 272 275 275 276 277 277 276 277 277 278 278 277 276 277 277 278 278 278 278 279 279 279 278 278 278 279 279 279 279 279 279 278
276 265 261 263 266 264 263 261 268 269 273 269 274 274 277 279 277 278 277 276 277 277 277 277 277 277 277 277 277 278 278 278 278 278 278 278 279 278 278 279 279 279 279 278
270 266 260 262 267 268 264 265 265 271 273 273 273 273 276 277 277 276 278 277 277 278 278 278 278 278 278 278 277 278 277 277 278 278 278 278 279 278 278 278 278 278 278 278
268 266 264 264 267 267 264 268 266 267 266 273 270 276 276 277 277 279 277 277 278 279 278 277 278 278 278 277 278 275 275 277 277 277 278 278 278 278 277 277 277 276 275 275
268 267 269 267 264 262 273 268 269 272 275 274 276 273 278 279 281 278 278 277 278 278 278 277 277 274 273 273 273 274 274 275 275 274 274 275 275 274 273 273 272 271 271 270
273 272 268 268 262 268 273 268 269 268 273 276 274 277 275 271 274 278 276 277 279 277 276 274 272 270 270 270 271 271 271 271 271 271 271 271 272 271 270 269 268 268 268 267
270 270 274 262 263 260 274 275 273 273 271 276 278 278 278 275 274 280 272 273 272 272 272 270 269 269 268 269 270 269 267 267 267 268 268 269 269 269 267 268 267 267 266 266
260 262 268 270 269 269 271 270 272 269 272 272 276 279 276 276 275 267 269 269 269 269 268 268 268 266 266 267 267 265 265 263 265 266 266 267 267 267 267 266 266 265 265 265
264 264 262 267 267 266 271 271 273 275 269 271 272 274 275 270 268 267 267 267 267 267 266 266 265 264 265 266 265 263 261 262 263 264 264 265 265 266 266 265 265 265 265 264
266 270 266 270 271 273 273 274 272 270 272 272 272 273 272 268 267 267 266 266 265 265 265 264 262 261 261 263 263 261 261 262 262 262 261 262 264 264 265 264 263 263 264 264
266 267 270 272 274 272 271 270 272 273 274 275 274 272 271 267 267 266 265 265 264 263 262 262 262 260 259 260 261 261 261 261 261 260 261 261 261 261 262 263 264 263 263 263
272 271 268 270 271 272 272 273 274 273 273 272 272 271 269 268 267 267 265 264 264 263 263 262 261 259 258 259 259 261 261 261 260 260 260 260 260 260 260 261 263 263 264 266
270 269 271 271 274 275 274 274 274 272 271 271 269 269 269 269 267 266 264 264 263 262 262 260 259 258 258 258 258 259 261 261 260 259 259 259 259 259 259 258 258 263 264 266
Wind_Speed
1 4 9 9 6 3 4 3 4 2 2 4 7 9 10 7 6 8 10 10 11 12 5 7 7 8 8 7 9 10 11 9 8 4 3 3 3 3 4 5 7 7 7 7
3 7 3 2 4 4 3 4 5 1 2 2 4 13 11 10 10 13 15 14 14 7 7 8 9 9 10 10 9 9 10 11 7 3 2 3 3 3 3 3 5 7 7 7
6 1 1 3 4 6 4 5 4 3 1 2 5 9 8 7 7 6 10 10 11 16 15 12 12 13 10 11 11 11 11 11 8 6 6 5 4 3 2 2 3 5 7 7
2 1 3 3 4 6 5 4 4 5 3 5 1 9 7 6 7 8 13 15 15 16 12 12 15 13 12 12 9 9 10 11 8 8 5 6 4 4 2 3 3 4 6 6
4 3 3 3 3 2 3 1 5 2 3 2 2 2 9 2 7 14 16 15 17 17 17 16 17 16 14 10 11 10 10 9 7 8 7 6 5 3 4 4 6 5 4 5
2 1 1 1 2 2 6 5 5 4 3 4 9 8 8 8 11 7 7 13 16 15 14 14 13 11 10 8 9 9 10 9 8 9 9 10 9 8 7 6 6 4 3 3
0 2 1 1 5 3 1 5 2 4 3 9 1 2 15 7 8 7 13 13 14 14 15 14 14 14 12 13 12 10 11 10 9 10 10 10 9 10 10 9 7 7 4 3
6 6 7 3 1 6 6 4 8 10 6 5 2 11 11 7 4 7 7 8 10 14 13 15 16 14 15 14 13 12 12 10 10 10 11 9 9 6 7 8 6 6 5 5
6 4 1 2 2 2 6 6 2 7 2 3 6 10 12 7 10 6 8 9 15 16 14 15 13 14 14 15 15 15 13 11 11 11 8 8 7 8 8 9 8 7 6 5
4 2 2 1 1 0 4 1 3 3 2 6 6 7 8 5 10 8 9 15 15 11 11 10 12 13 12 13 13 13 13 14 11 11 9 8 8 7 6 6 8 8 7 7
4 5 2 2 7 8 2 2 1 1 4 6 2 10 11 13 5 16 17 14 15 15 13 11 11 11 12 11 12 13 13 13 10 11 10 8 9 8 7 7 6 6 7 7
5 6 5 9 1 0 3 8 7 6 7 4 2 17 5 6 6 7 8 7 5 7 10 8 9 10 11 12 12 13 12 12 12 11 10 10 8 8 8 7 6 6 6 6
6 3 2 7 5 4 5 7 5 4 3 8 6 10 1 4 6 5 8 10 10 8 8 7 7 10 11 11 11 11 11 12 10 10 10 9 9 8 9 8 7 6 5 5
3 2 9 10 8 6 5 6 11 6 4 10 22 19 7 6 7 6 7 7 8 10 11 9 8 10 9 9 10 10 10 10 10 10 10 10 10 10 9 7 6 6 5 5
6 6 3 4 4 4 6 6 13 20 26 14 16 25 18 13 9 7 8 7 9 11 12 13 11 9 8 8 8 9 9 10 10 10 10 10 8 7 6 6 6 5 5 5
1 5 3 6 2 6 8 10 11 22 19 23 22 33 7 9 5 5 9 10 12 13 14 12 11 11 10 9 8 7 7 8 9 9 9 7 7 7 6 6 6 5 5 5
6 6 4 9 3 1 13 17 18 10 8 14 23 30 5 9 11 13 10 13 17 18 15 15 13 11 8 7 7 6 6 7 8 8 8 7 7 7 6 7 7 7 7 7
8 6 1 2 3 8 12 2 5 20 17 22 20 5 13 15 15 7 8 13 13 13 14 13 11 9 9 7 9 9 9 10 10 10 10 9 10 11 10 10 10 9 7 7
5 6 2 4 6 13 23 7 9 12 16 25 28 27 9 2 3 13 8 7 10 8 9 9 10 11 10 10 10 12 11 11 11 10 11 10 10 12 11 11 9 7 7 7
3 4 10 4 5 12 13 11 6 6 23 14 25 25 21 8 7 18 2 4 8 12 13 15 14 13 12 10 11 14 12 12 11 10 11 10 11 12 11 10 9 7 7 7
5 0 18 17 10 14 8 5 5 9 11 1 6 10 9 12 5 3 9 12 11 12 16 16 14 14 12 11 13 15 12 12 9 10 11 12 11 12 11 10 9 7 7 7
12 13 7 5 7 22 8 4 17 4 2 1 0 2 6 9 9 10 11 13 14 15 15 14 15 14 11 11 14 14 14 8 9 11 12 11 10 9 9 10 9 8 6 7
5 12 11 16 14 7 9 5 2 3 3 3 2 3 10 14 9 12 12 13 12 13 14 13 14 15 12 11 11 16 9 9 11 12 11 10 10 10 9 9 8 7 7 6
6 4 7 4 12 11 7 1 2 4 3 1 1 8 7 13 17 17 15 14 13 13 13 13 14 14 13 11 12 12 11 10 12 13 11 9 9 9 8 7 6 6 5 5
6 12 8 8 6 2 7 7 6 4 6 7 7 5 10 16 15 18 16 15 14 14 13 13 14 14 14 12 12 10 10 10 12 11 9 9 8 8 7 7 6 5 4 4
9 11 11 12 8 9 6 10 10 9 6 8 14 12 11 14 16 16 14 13 14 14 14 15 15 15 14 12 12 10 8 9 10 11 8 7 6 6 6 5 4 8 10 10
Wind_Direction
16 119 208 194 196 121 133 189 222 200 183 206 236 262 256 198 210 215 210 210 213 215 199 183 182 176 161 162 156 156 150 153 144 136 126 102 88 69 58 52 51 51 51 49
51 229 189 95 157 154 165 188 230 251 169 204 328 273 254 196 215 207 204 208 210 189 192 185 182 179 181 174 169 163 164 163 169 148 140 132 136 96 82 67 57 52 52 44
168 203 126 161 156 169 209 193 177 232 191 224 314 275 243 227 212 196 211 209 200 199 192 189 185 189 184 183 179 175 172 171 173 148 125 102 106 109 121 91 77 49 54 52
219 66 164 158 197 160 225 190 153 147 140 245 321 283 283 235 246 221 212 205 201 194 193 189 187 189 191 194 178 173 173 174 177 165 154 157 154 151 147 127 114 86 66 64
224 167 166 173 187 201 226 114 124 93 115 359 187 303 266 58 250 232 221 208 205 196 189 189 190 192 191 173 181 178 173 176 175 177 171 161 153 133 138 135 129 117 97 88
93 339 328 115 79 17 151 80 58 59 85 289 195 187 231 196 208 236 194 205 199 190 189 191 187 175 177 168 169 172 175 186 179 176 175 173 165 160 155 159 152 145 128 106
74 206 151 188 97 33 10 111 17 344 356 233 11 230 260 273 236 226 209 198 191 184 184 180 175 178 173 176 176 177 180 189 184 182 180 181 178 173 172 169 166 157 153 162
168 297 173 161 239 184 198 183 166 203 204 252 22 236 247 243 276 237 240 187 170 183 185 186 184 180 179 177 177 179 182 190 185 187 191 187 182 182 178 175 171 170 172 167
130 271 2 40 355 70 196 213 161 101 54 31 222 281 286 244 251 231 217 173 189 190 186 184 175 179 178 175 180 181 181 190 188 192 185 187 185 183 186 180 176 175 166 164
194 28 357 353 255 113 155 279 104 9 239 260 267 276 244 270 247 223 217 208 190 187 184 175 175 177 181 179 176 178 183 187 188 187 189 186 186 188 182 170 186 179 173 166
122 119 298 55 204 181 127 233 41 164 154 185 272 259 217 240 251 205 209 208 195 183 182 181 179 178 177 170 173 179 181 181 181 185 186 183 187 180 175 185 188 183 170 170
199 140 178 205 252 7 177 198 173 154 232 240 192 253 197 239 269 231 205 191 179 180 184 176 170 165 169 176 175 183 183 185 189 184 180 189 179 172 179 187 185 178 178 177
196 243 23 335 351 358 216 199 202 134 102 216 189 259 3 268 278 249 213 194 189 177 165 166 159 175 177 179 178 179 182 188 181 173 178 178 179 177 191 187 175 177 173 183
119 148 178 194 201 132 193 218 199 153 161 225 233 263 315 291 261 256 238 211 183 181 175 172 176 180 177 176 175 178 183 184 173 173 176 180 183 188 188 175 170 173 173 177
149 225 158 261 217 160 207 196 200 207 226 215 262 243 233 254 253 242 211 190 176 184 187 188 178 171 167 165 172 175 178 175 169 173 175 187 176 157 149 162 167 159 169 181
287 237 119 285 270 212 259 227 213 222 238 252 267 268 220 249 261 229 206 190 195 197 195 185 172 163 167 165 165 164 167 166 160 166 171 146 147 150 156 152 156 152 146 140
166 149 118 266 341 95 285 219 200 205 206 211 231 246 192 247 234 236 213 197 200 202 188 180 171 155 135 125 127 128 131 127 128 128 130 132 128 116 108 108 104 100 98 99
158 134 158 272 17 245 248 64 196 212 230 218 247 221 211 234 243 245 212 189 203 191 175 160 141 120 110 105 101 105 100 102 105 101 100 101 104 100 94 90 90 87 85 88
173 163 156 227 203 302 290 178 158 174 254 214 226 245 222 219 7 271 184 200 200 164 140 121 109 111 109 105 107 101 92 93 92 90 88 90 100 100 97 93 88 86 91 83
99 10 200 134 218 231 285 208 169 112 266 164 209 230 223 140 211 252 91 94 100 108 121 118 113 108 101 101 105 99 93 91 85 86 87 84 88 91 91 92 89 85 84 86
121 111 210 217 230 271 233 186 147 155 242 271 212 227 143 195 219 76 81 74 87 101 107 107 103 100 99 102 103 94 92 82 88 86 85 82 82 89 91 89 86 87 86 83
160 165 189 191 215 259 147 41 201 227 331 249 278 226 133 115 109 97 95 100 101 100 100 98 98 90 84 94 101 97 90 93 88 87 85 80 79 85 87 88 84 79 85 84
212 189 178 190 208 225 202 239 220 154 181 225 189 162 129 125 123 114 107 103 100 100 98 95 95 89 74 79 97 105 103 98 92 86 80 78 77 79 81 84 86 83 71 70
260 157 218 105 239 229 225 157 199 189 176 110 71 138 134 130 132 121 116 111 103 99 100 102 98 91 84 79 85 91 99 96 94 90 84 81 80 78 70 70 68 71 60 54
180 149 177 257 258 242 235 211 161 129 113 102 83 97 123 129 133 129 126 122 117 114 111 105 101 97 94 87 81 83 89 96 93 91 86 80 74 74 73 62 55 58 21 23
181 182 184 220 207 200 221 180 146 145 142 134 120 112 122 127 123 121 113 116 119 116 114 107 106 104 103 93 85 73 72 90 97 92 84 80 82 74 66 54 35 27 25 10